Location: Les Thiberg�res
(47.8554°N, 1.0978°W)
Time: 02:13:15
(UTC+00:00)

IDEFIX/ARIANE 42P - Pass Details

Date: 17 February 2020
Orbit: 784 x 804 km, 98.3° (Epoch: 03 April)

Event Time Altitude Azimuth Distance (km) Brightness Sun altitude
Rises 05:25:55 0° 1° (N) 3,321 5.8 -17.8°
Reaches altitude 10° 05:29:08 10° 340° (NNW) 2,383 4.9 -17.2°
Enters shadow 05:31:14 15° 317° (NW) 2,036 4.3 -16.9°
